TimeCST,TemperatureF,Dew PointF,Humidity,Sea Level PressureIn,VisibilityMPH,Wind Direction,Wind SpeedMPH,Gust SpeedMPH,PrecipitationIn,Events,Conditions,WindDirDegrees,DateUTC
12:53 AM,57.9,44.1,60,30.08,10.0,SSE,6.9,-,N/A,,Clear,150,2012-11-22 06:53:00
1:53 AM,55.9,44.1,64,30.07,10.0,SSE,8.1,-,N/A,,Clear,160,2012-11-22 07:53:00
2:53 AM,55.0,45.0,69,30.07,10.0,South,9.2,-,N/A,,Clear,170,2012-11-22 08:53:00
3:53 AM,53.1,44.1,71,30.07,10.0,Calm,Calm,-,N/A,,Clear,0,2012-11-22 09:53:00
4:53 AM,53.1,44.1,71,30.08,10.0,South,6.9,-,N/A,,Clear,180,2012-11-22 10:53:00
5:53 AM,55.0,45.0,69,30.07,10.0,SSE,10.4,-,N/A,,Clear,150,2012-11-22 11:53:00
6:53 AM,53.1,45.0,74,30.08,10.0,SSE,9.2,-,N/A,,Clear,160,2012-11-22 12:53:00
7:53 AM,55.9,46.9,72,30.08,10.0,SSE,8.1,-,N/A,,Clear,160,2012-11-22 13:53:00
8:53 AM,63.0,48.9,60,30.10,10.0,South,10.4,-,N/A,,Clear,190,2012-11-22 14:53:00
9:53 AM,66.0,46.9,50,30.11,10.0,SSW,15.0,-,N/A,,Clear,200,2012-11-22 15:53:00
10:53 AM,69.1,46.9,45,30.09,10.0,South,16.1,21.9,N/A,,Partly Cloudy,190,2012-11-22 16:53:00
11:53 AM,73.0,46.9,39,30.06,10.0,South,19.6,31.1,0.00,,Partly Cloudy,190,2012-11-22 17:53:00
12:53 PM,75.0,51.1,43,30.01,10.0,South,20.7,-,N/A,,Clear,190,2012-11-22 18:53:00
1:53 PM,77.0,51.1,40,29.99,10.0,SSW,21.9,-,N/A,,Clear,200,2012-11-22 19:53:00
2:53 PM,75.9,51.1,42,29.98,10.0,South,23.0,32.2,N/A,,Clear,180,2012-11-22 20:53:00
3:53 PM,75.9,52.0,43,29.98,10.0,South,18.4,25.3,N/A,,Clear,180,2012-11-22 21:53:00
4:53 PM,73.9,52.0,46,30.00,10.0,South,15.0,-,N/A,,Clear,180,2012-11-22 22:53:00
5:53 PM,70.0,52.0,53,30.01,10.0,South,11.5,-,N/A,,Clear,170,2012-11-22 23:53:00
6:53 PM,68.0,53.1,59,30.03,10.0,SSE,10.4,-,N/A,,Clear,160,2012-11-23 00:53:00
7:53 PM,66.9,53.1,61,30.04,10.0,SSE,10.4,-,N/A,,Clear,150,2012-11-23 01:53:00
8:53 PM,64.0,53.1,67,30.05,10.0,SSE,8.1,-,N/A,,Clear,160,2012-11-23 02:53:00
9:53 PM,63.0,53.1,70,30.06,10.0,SSE,8.1,-,N/A,,Clear,150,2012-11-23 03:53:00
10:53 PM,61.0,52.0,72,30.07,10.0,SSE,5.8,-,N/A,,Clear,150,2012-11-23 04:53:00
11:53 PM,61.0,52.0,72,30.08,10.0,Calm,Calm,-,N/A,,Clear,0,2012-11-23 05:53:00